Duchifat 3
1 44854U 19089C   25118.74269773  .00067966  00000-0  14981-2 0  9993
2 44854  36.9446 260.5005 0001490 291.8670  68.1927 15.42831648296477
TO-108
1 44881U 19093C   25118.86648611  .00001759  00000-0  20959-3 0  9994
2 44881  97.7932 195.3883 0014028  14.8225 345.3399 14.85503751289888
FloripaSat 1
1 44885U 19093G   25118.80637837  .00008850  00000-0  75391-3 0  9999
2 44885  97.8171 206.3391 0010112 354.3936   5.7171 14.97968607290498
RS-44
1 44909U 19096E   25117.86805738 -.00000005  00000-0 -67326-4 0  9997
2 44909  82.5196 255.6544 0217941  35.7071 325.8385 12.79740293249224
UPMSat 2
1 46276U 20061E   25118.19150114  .00080278  00000-0  87742-3 0  9999
2 46276  97.2475 191.3195 0001433 144.1174 216.0182 15.63069110258831
SALSAT
1 46495U 20068K   25118.88025232  .00013013  00000-0  57067-3 0  9997
2 46495  97.8583  95.0095 0010005 314.5959  45.4458 15.22078436252186
CubeSX-Sirius-HSE
1 47951U 21022V   25118.46677247  .00291917  00000-0  17901-2 0  9992
2 47951  97.4191  29.3360 0010501 103.0614 257.1824 15.76402311227172
CubeSX-HSE
1 47952U 21022W   25118.86542447  .00257100  00000-0  15340-2 0  9991
2 47952  97.4208  30.0096 0009837 100.3502 259.8873 15.77127896227258
GRBAlpha
1 47959U 21022AD  25118.71630470  .00262669  00000-0  16256-2 0  9999
2 47959  97.4190  29.9591 0010002 102.1567 258.0819 15.76276813226050
TUBIN
1 48900U 21059X   25118.80208984  .00064029  00000-0  89555-3 0  9990
2 48900  97.6732 284.7617 0002654  40.3419 319.8031 15.56617726213535
LEDSAT
1 49069U 21073D   25118.68638489  .00078697  00000-0  11580-2 0  9994
2 49069  97.3912 198.6466 0011612 223.3458 136.6884 15.55105649204912
CUTE
1 49263U 21088D   25118.16124516  .00025943  00000-0  54445-3 0  9994
2 49263  97.4526 193.2346 0008762  46.0202 314.1767 15.45318014197877
TeikyoSat 4
1 49396U 21102B   25118.53584003  .00003775  00000-0  25282-3 0  9996
2 49396  97.4130 158.4774 0011012 278.4549  81.5431 15.07435583190213
Z-Sat
1 49399U 21102E   25118.78843825  .00007116  00000-0  39402-3 0  9998
2 49399  97.3839 161.5644 0016691 246.2432 113.7050 15.14009346190659
KOSEN 1
1 49402U 21102H   25118.07732837  .00013301  00000-0  62490-3 0  9991
2 49402  97.3747 163.9762 0015149 222.7708 137.2350 15.19630124190834
HO-113
1 50466U 21131B   25118.88457914  .00001133  00000-0  36794-3 0  9992
2 50466  98.5085 208.4474 0003015 254.2262 105.8595 14.40755471175441
IRIS-A
1 51044U 22002BN  25118.17684944  .00249920  00000-0  12299-2 0  9991
2 51044  97.3261 196.4201 0004138 248.0362 112.0467 15.81484587183158
Foresail-1
1 52766U 22057AL  25118.85731798  .00198612  00000-0  11681-2 0  9993
2 52766  97.6043 266.2180 0000398 262.6002  97.5218 15.77666199163289
SNUGLITE 2
1 52899U 22065F   25118.84305023  .00002485  00000-0  49294-3 0  9990
2 52899  98.1623 261.2399 0006602 238.0909 121.9651 14.63092923150382
IO-117
1 53106U 22080B   25051.21822557 -.00000003  00000-0  00000+0 0  9995
2 53106  70.1434 106.3440 0008542  48.0089 312.1297  6.42557744 61200
UmKA 1 (RS40S)
1 57172U 23091G   25118.86735494  .00009334  00000-0  50425-3 0  9998
2 57172  97.5614 174.4736 0016298 117.1920 243.0975 15.14814417101160
CubeBel-2 (EU11S)
1 57175U 23091K   25118.86917301  .00014611  00000-0  71105-3 0  9992
2 57175  97.5614 175.3802 0014101 125.5444 234.7107 15.18404261101229
VERONIKA
1 58261U 23174F   25118.83439739  .00127678  00000-0  15591-2 0  9996
2 58261  97.4151 202.8408 0007641 198.7650 161.3326 15.59985902 82150
ENSO
1 58470U 23185J   25118.83629342  .00063033  00000-0  10703-2 0  9995
2 58470  97.3761 192.7539 0008152 220.5392 139.5254 15.51229521 78551
EIRSAT-1
1 58472U 23185L   25118.84843777  .00102505  00000-0  12918-2 0  9996
2 58472  97.3730 194.0610 0007504 218.6487 141.4233 15.59240236 78640
SONATE-2
1 59112U 24043Q   25117.34038159  .00026615  00000-0  80478-3 0  9990
2 59112  97.5074 247.7167 0010482 265.0551  94.9495 15.34139039 63709
MO-122
1 60209U 24125G   25118.34151015  .00029119  00000-0  86731-3 0  9998
2 60209  97.2838 330.4685 0017725 289.9849  69.9485 15.34492565 45471
GRBBeta
1 60237U 24128C   25118.00824119  .00008112  00000-0  61210-3 0  9992
2 60237  61.9927 227.9439 0048147  48.0213 312.4963 15.02227192 43806
Curium One
1 60242U 24128H   25118.50965003  .00012033  00000-0  84849-3 0  9991
2 60242  61.9827 225.0720 0048062  43.6416 316.8460 15.04426721 43907
ROBUSTA-3A
1 60243U 24128J   25118.69939699  .00012340  00000-0  88101-3 0  9990
2 60243  61.9897 225.1018 0046546  41.4683 318.9925 15.04003076 43928
CatSat
1 60246U 24125J   25117.52341057  .00014495  00000-0  49750-3 0  9996
2 60246  97.2633 329.3456 0041883 246.3866 113.2975 15.29390372 43401
HYPERVIEW-1G (RS66S)
1 61772U 24199AP  25118.88024731  .00029062  00000-0  89044-3 0  9995
2 61772  97.3592 347.8646 0013269 350.2129   9.8853 15.33667306 70562
AO-123
1 61781U 24199AY  25118.86670745  .00010312  00000-0  38181-3 0  9999
2 61781  97.3602 347.1445 0015592 352.4113   7.6888 15.27736658 70511
ZIMSAT 2
1 61783U 24199BA  25118.86063240  .00050113  00000-0  13517-2 0  9995
2 61783  97.3576 348.1808 0013265 348.3388  11.7547 15.37545184 73738
HADES-R (SO-124)
1 62690U 25009CK  25117.83676323  .00057312  00000-0  22221-2 0  9992
2 62690  97.4107 198.9059 0003665 211.0515 149.0507 15.25916596 15628
HYDRA-T
1 62692U 25009CM  25117.50052746  .00059451  00000-0  22936-2 0  9994
2 62692  97.4108 198.5915 0003641 206.7478 153.3573 15.26071293 15573
JINJUSat 1B
1 63210U 25052A   25118.20427575  .00020140  00000-0  94764-3 0  9995
2 63210  97.4468  12.8856 0006520 104.2126 255.9833 15.19570387  6817
NUSHSAT 1
1 63211U 25052B   25118.66488036  .00020349  00000-0  95397-3 0  9999
2 63211  97.4453  13.3362 0006461 107.4001 252.7941 15.19695150  6889
TEVEL2-4
1 63213U 25052D   25118.47335791  .00021124  00000-0  99751-3 0  9999
2 63213  97.4373  13.0875 0005331 117.8143 242.3633 15.19442605  6850
TEVEL2-5
1 63214U 25052E   25117.88082321  .00021801  00000-0  10303-2 0  9999
2 63214  97.4376  12.5036 0005302 119.1341 241.0425 15.19407401  6760
TEVEL2-6
1 63215U 25052F   25118.21113335  .00020467  00000-0  96835-3 0  9990
2 63215  97.4376  12.8269 0005390 119.3101 240.8673 15.19382285  6815
TEVEL2-1
1 63217U 25052H   25118.21644667  .00019940  00000-0  94885-3 0  9996
2 63217  97.4350  12.8065 0005301 128.9484 231.2223 15.19187801  6817
TEVEL2-2
1 63218U 25052J   25118.87534295  .00018447  00000-0  87779-3 0  9999
2 63218  97.4349  13.4547 0005372 128.0402 232.1318 15.19205792  6913
TEVEL2-3
1 63219U 25052K   25118.87535758  .00017898  00000-0  85188-3 0  9996
2 63219  97.4349  13.4547 0005312 127.7771 232.3945 15.19202558  6918
TEVEL2-8
1 63237U 25052AD  25118.18323800  .00020717  00000-0  10186-2 0  9992
2 63237  97.4415  12.7338 0009244 150.3491 209.8269 15.18016993  6802
TEVEL2-9
1 63238U 25052AE  25118.18413318  .00020449  00000-0  10067-2 0  9997
2 63238  97.4416  12.7341 0009381 150.4985 209.6780 15.17973126  6804
TEVEL2-7
1 63239U 25052AF  25117.26220314  .00019397  00000-0  95733-3 0  9992
2 63239  97.4418  11.8240 0009206 153.5911 206.5794 15.17897404  6663
HYDRA-W
1 63490U 25052BL  25118.53702028  .00038681  00000-0  17454-2 0  9999
2 63490  97.4365  13.1517 0013744 149.7273 210.4759 15.20806929  6868
HADES-ICM
1 63492U 25052BN  25118.47602428  .00036769  00000-0  16749-2 0  9998
2 63492  97.4373  13.0824 0013865 153.5627 206.6318 15.20492439  6853
